Simultaneous Nadir Overpasses (SNOs) Predictions

Prediction of SNOs between LANDSAT-8 and METOP-B Satellite Orbit:

Table of predicted SNOs for the next 14.0 days since TLE Epoch: 3/4/2016
Index Date (LANDSAT-8) Time (LANDSAT-8) Lat,Lon (LANDSAT-8) SZA (LANDSAT-8 ) Date (METOP-B) Time (METOP-B) Lat,Lon (METOP-B) SZA (METOP-B ) Distance(km) Time Diff (sec)
1 03/06/2016 13:42:04 -81.21,-164.54 91.61 03/06/2016 13:41:21 -81.21,-164.42 91.61 1.95 43
2 03/06/2016 14:31:30 81.22, 3.19 88.40 03/06/2016 14:32:01 81.22, 3.25 88.42 0.94 31
3 03/09/2016 09:16:18 -81.20, -98.23 92.70 03/09/2016 09:15:41 -81.20, -98.41 92.74 2.98 37
4 03/09/2016 10:05:43 81.23, 69.84 87.35 03/09/2016 10:06:19 81.23, 69.99 87.38 2.55 36
5 03/12/2016 04:50:32 -81.21, -31.63 93.76 03/12/2016 04:50:00 -81.21, -31.66 93.78 0.68 32
6 03/12/2016 05:39:58 81.22, 136.05 86.24 03/12/2016 05:40:40 81.22, 135.94 86.24 1.80 42
7 03/15/2016 00:24:46 -81.22, 34.90 94.84 03/15/2016 00:24:19 -81.22, 35.07 94.83 2.78 27
8 03/15/2016 01:14:12 81.22,-157.44 85.16 03/15/2016 01:14:59 81.23,-157.36 85.19 1.35 47
9 03/17/2016 19:59:00 -81.20, 101.00 95.97 03/17/2016 19:58:39 -81.20, 101.00 95.98 0.60 21




NCC Satellite Simultaneous Nadir Overpasses (SNOs) Prediction Service
